#datetime,building,power
2023-10-27T00:00:00,pth,3.60
2023-10-27T00:01:00,pth,1.20
2023-10-27T00:03:00,pth,2.40
2023-10-27T00:05:00,pth,2.40
2023-10-27T00:06:00,pth,2.40
2023-10-27T00:08:00,pth,2.40
2023-10-27T00:10:00,pth,4.80
2023-10-27T00:11:00,pth,2.40
2023-10-27T00:13:00,pth,2.40
2023-10-27T00:15:00,pth,3.60
2023-10-27T00:16:00,pth,1.19
2023-10-27T00:18:00,pth,3.60
2023-10-27T00:20:00,pth,2.40
2023-10-27T00:21:00,pth,1.19
2023-10-27T00:23:00,pth,2.40
2023-10-27T00:25:00,pth,2.40
2023-10-27T00:26:00,pth,1.20
2023-10-27T00:28:00,pth,2.40
2023-10-27T00:30:00,pth,3.60
2023-10-27T00:31:00,pth,1.20
2023-10-27T00:33:00,pth,2.40
2023-10-27T00:34:00,pth,1.20
2023-10-27T00:36:00,pth,3.60
2023-10-27T00:39:00,pth,4.80
2023-10-27T00:40:00,pth,1.20
2023-10-27T00:41:00,pth,1.20
2023-10-27T00:43:00,pth,2.40
2023-10-27T00:45:00,pth,2.40
2023-10-27T00:47:00,pth,3.60
2023-10-27T00:49:00,pth,2.40
2023-10-27T00:50:00,pth,2.40
2023-10-27T00:51:00,pth,1.20
2023-10-27T00:53:00,pth,4.80
2023-10-27T00:54:00,pth,1.20
2023-10-27T00:55:00,pth,2.40
2023-10-27T00:56:00,pth,1.20
2023-10-27T00:58:00,pth,3.60
2023-10-27T00:59:00,pth,1.20
2023-10-27T01:01:00,pth,2.40
2023-10-27T01:03:00,pth,2.40
2023-10-27T01:05:00,pth,2.40
2023-10-27T01:06:00,pth,1.20
2023-10-27T01:08:00,pth,3.60
2023-10-27T01:10:00,pth,2.40
2023-10-27T01:12:00,pth,2.40
2023-10-27T01:13:00,pth,2.40
2023-10-27T01:15:00,pth,2.40
2023-10-27T01:16:00,pth,1.20
2023-10-27T01:18:00,pth,3.60
2023-10-27T01:19:00,pth,1.20
2023-10-27T01:21:00,pth,2.40
2023-10-27T01:23:00,pth,2.40
2023-10-27T01:24:00,pth,1.19
2023-10-27T01:26:00,pth,3.60
2023-10-27T01:28:00,pth,2.40
2023-10-27T01:30:00,pth,2.40
2023-10-27T01:31:00,pth,1.20
2023-10-27T01:33:00,pth,2.40
2023-10-27T01:34:00,pth,1.20
2023-10-27T01:36:00,pth,2.40
2023-10-27T01:38:00,pth,2.40
2023-10-27T01:39:00,pth,1.20
2023-10-27T01:41:00,pth,2.40
2023-10-27T01:42:00,pth,1.19
2023-10-27T01:44:00,pth,2.40
2023-10-27T01:45:00,pth,1.20
2023-10-27T01:46:00,pth,1.20
2023-10-27T01:48:00,pth,1.20
2023-10-27T01:49:00,pth,1.19
2023-10-27T01:51:00,pth,2.40
2023-10-27T01:53:00,pth,2.40
2023-10-27T01:54:00,pth,2.40
2023-10-27T01:56:00,pth,2.40
2023-10-27T01:58:00,pth,1.20
2023-10-27T02:00:00,pth,2.40
2023-10-27T02:01:00,pth,1.20
2023-10-27T02:03:00,pth,2.40
2023-10-27T02:05:00,pth,2.40
2023-10-27T02:07:00,pth,2.40
2023-10-27T02:08:00,pth,1.19
2023-10-27T02:10:00,pth,1.20
2023-10-27T02:11:00,pth,1.20
2023-10-27T02:13:00,pth,2.40
2023-10-27T02:14:00,pth,1.20
2023-10-27T02:16:00,pth,2.40
2023-10-27T02:18:00,pth,2.40
2023-10-27T02:20:00,pth,2.40
2023-10-27T02:21:00,pth,1.20
2023-10-27T02:22:00,pth,1.19
2023-10-27T02:24:00,pth,2.40
2023-10-27T02:26:00,pth,2.40
2023-10-27T02:27:00,pth,1.20
2023-10-27T02:29:00,pth,1.19
2023-10-27T02:31:00,pth,2.40
2023-10-27T02:33:00,pth,2.40
2023-10-27T02:34:00,pth,1.20
2023-10-27T02:36:00,pth,2.40
2023-10-27T02:38:00,pth,3.60
2023-10-27T02:40:00,pth,2.40
2023-10-27T02:41:00,pth,1.20
2023-10-27T02:43:00,pth,2.40
2023-10-27T02:44:00,pth,1.20
2023-10-27T02:46:00,pth,2.40
2023-10-27T02:48:00,pth,2.40
2023-10-27T02:49:00,pth,1.20
2023-10-27T02:50:00,pth,1.20
2023-10-27T02:52:00,pth,1.20
2023-10-27T02:53:00,pth,1.20
2023-10-27T02:55:00,pth,2.40
2023-10-27T02:56:00,pth,1.20
2023-10-27T02:58:00,pth,1.20
2023-10-27T03:00:00,pth,2.40
2023-10-27T03:01:00,pth,1.19
2023-10-27T03:03:00,pth,2.40
2023-10-27T03:05:00,pth,2.40
2023-10-27T03:07:00,pth,1.20
2023-10-27T03:08:00,pth,1.19
2023-10-27T03:10:00,pth,2.40
2023-10-27T03:12:00,pth,2.40
2023-10-27T03:13:00,pth,1.20
2023-10-27T03:15:00,pth,2.40
2023-10-27T03:16:00,pth,1.20
2023-10-27T03:18:00,pth,1.20
2023-10-27T03:20:00,pth,2.40
2023-10-27T03:21:00,pth,1.20
2023-10-27T03:23:00,pth,2.40
2023-10-27T03:25:00,pth,2.40
2023-10-27T03:26:00,pth,1.20
2023-10-27T03:28:00,pth,1.20
2023-10-27T03:30:00,pth,2.40
2023-10-27T03:31:00,pth,1.20
2023-10-27T03:33:00,pth,1.20
2023-10-27T03:35:00,pth,2.40
2023-10-27T03:36:00,pth,1.19
2023-10-27T03:38:00,pth,2.40
2023-10-27T03:40:00,pth,2.40
2023-10-27T03:42:00,pth,1.20
2023-10-27T03:43:00,pth,1.20
2023-10-27T03:44:00,pth,1.19
2023-10-27T03:45:00,pth,1.20
2023-10-27T03:47:00,pth,1.20
2023-10-27T03:48:00,pth,1.20
2023-10-27T03:49:00,pth,1.20
2023-10-27T03:51:00,pth,2.40
2023-10-27T03:53:00,pth,2.40
2023-10-27T03:55:00,pth,1.20
2023-10-27T03:56:00,pth,1.20
2023-10-27T03:58:00,pth,2.40
2023-10-27T03:59:00,pth,1.20
2023-10-27T04:01:00,pth,1.20
2023-10-27T04:03:00,pth,2.40
2023-10-27T04:05:00,pth,2.40
2023-10-27T04:06:00,pth,1.20
2023-10-27T04:09:00,pth,2.40
2023-10-27T04:10:00,pth,1.20
2023-10-27T04:11:00,pth,1.20
2023-10-27T04:13:00,pth,1.20
2023-10-27T04:15:00,pth,2.40
2023-10-27T04:16:00,pth,2.40
2023-10-27T04:18:00,pth,4.80
2023-10-27T04:19:00,pth,1.20
2023-10-27T04:21:00,pth,3.60
2023-10-27T04:22:00,pth,1.19
2023-10-27T04:24:00,pth,2.40
2023-10-27T04:25:00,pth,1.20
2023-10-27T04:27:00,pth,2.40
2023-10-27T04:28:00,pth,1.19
2023-10-27T04:30:00,pth,1.20
2023-10-27T04:32:00,pth,2.40
2023-10-27T04:34:00,pth,2.40
2023-10-27T04:35:00,pth,1.20
2023-10-27T04:37:00,pth,2.40
2023-10-27T04:39:00,pth,2.40
2023-10-27T04:41:00,pth,1.20
2023-10-27T04:43:00,pth,2.40
2023-10-27T04:45:00,pth,2.40
2023-10-27T04:47:00,pth,2.40
2023-10-27T04:48:00,pth,1.20
2023-10-27T04:50:00,pth,1.19
2023-10-27T04:51:00,pth,1.20
2023-10-27T04:53:00,pth,1.20
2023-10-27T04:55:00,pth,2.40
2023-10-27T04:57:00,pth,1.20
2023-10-27T04:58:00,pth,1.19
2023-10-27T05:00:00,pth,2.40
2023-10-27T05:01:00,pth,1.20
2023-10-27T05:03:00,pth,1.20
2023-10-27T05:05:00,pth,2.40
2023-10-27T05:06:00,pth,1.19
2023-10-27T05:08:00,pth,1.20
2023-10-27T05:09:00,pth,1.20
2023-10-27T05:11:00,pth,1.20
2023-10-27T05:13:00,pth,2.40
2023-10-27T05:14:00,pth,1.19
2023-10-27T05:16:00,pth,1.20
2023-10-27T05:18:00,pth,2.40
2023-10-27T05:20:00,pth,1.20
2023-10-27T05:22:00,pth,2.40
2023-10-27T05:23:00,pth,1.20
2023-10-27T05:24:00,pth,1.20
2023-10-27T05:26:00,pth,1.20
2023-10-27T05:28:00,pth,2.40
2023-10-27T05:30:00,pth,1.19
2023-10-27T05:31:00,pth,1.20
2023-10-27T05:33:00,pth,2.40
2023-10-27T05:35:00,pth,1.20
2023-10-27T05:36:00,pth,1.20
2023-10-27T05:37:00,pth,1.20
2023-10-27T05:39:00,pth,2.40
2023-10-27T05:41:00,pth,2.40
2023-10-27T05:42:00,pth,1.20
2023-10-27T05:43:00,pth,1.20
2023-10-27T05:45:00,pth,2.40
2023-10-27T05:47:00,pth,2.40
2023-10-27T05:49:00,pth,2.40
2023-10-27T05:50:00,pth,1.19
2023-10-27T05:51:00,pth,1.20
2023-10-27T05:53:00,pth,2.40
2023-10-27T05:55:00,pth,1.20
2023-10-27T05:57:00,pth,2.40
2023-10-27T05:58:00,pth,1.20
2023-10-27T06:00:00,pth,2.40
2023-10-27T06:01:00,pth,1.20
2023-10-27T06:02:00,pth,1.20
2023-10-27T06:03:00,pth,1.20
2023-10-27T06:05:00,pth,2.40
2023-10-27T06:06:00,pth,1.20
2023-10-27T06:08:00,pth,2.40
2023-10-27T06:10:00,pth,1.20
2023-10-27T06:11:00,pth,1.19
2023-10-27T06:12:00,pth,1.20
2023-10-27T06:14:00,pth,2.40
2023-10-27T06:16:00,pth,2.40
2023-10-27T06:17:00,pth,1.19
2023-10-27T06:19:00,pth,1.20
2023-10-27T06:20:00,pth,1.20
2023-10-27T06:21:00,pth,1.20
2023-10-27T06:23:00,pth,2.40
2023-10-27T06:24:00,pth,1.19
2023-10-27T06:25:00,pth,1.20
2023-10-27T06:27:00,pth,3.60
2023-10-27T06:28:00,pth,2.40
2023-10-27T06:30:00,pth,3.60
2023-10-27T06:32:00,pth,2.40
2023-10-27T06:34:00,pth,2.40
2023-10-27T06:35:00,pth,1.20
2023-10-27T06:36:00,pth,2.40
2023-10-27T06:38:00,pth,2.40
2023-10-27T06:40:00,pth,2.40
2023-10-27T06:41:00,pth,3.60
2023-10-27T06:43:00,pth,2.40
2023-10-27T06:45:00,pth,2.40
2023-10-27T06:46:00,pth,1.20
2023-10-27T06:48:00,pth,2.40
2023-10-27T06:49:00,pth,1.20
2023-10-27T06:51:00,pth,2.40
2023-10-27T06:52:00,pth,1.20
2023-10-27T06:54:00,pth,2.40
2023-10-27T06:55:00,pth,1.20
2023-10-27T06:57:00,pth,2.40
2023-10-27T06:59:00,pth,2.40
2023-10-27T07:01:00,pth,2.40
2023-10-27T07:02:00,pth,1.19
2023-10-27T07:03:00,pth,1.20
2023-10-27T07:05:00,pth,2.40
2023-10-27T07:06:00,pth,1.20
2023-10-27T07:07:00,pth,1.20
2023-10-27T07:09:00,pth,2.40
2023-10-27T07:10:00,pth,1.20
2023-10-27T07:12:00,pth,1.20
2023-10-27T07:13:00,pth,1.20
2023-10-27T07:15:00,pth,2.40
2023-10-27T07:16:00,pth,1.19
2023-10-27T07:18:00,pth,2.40
2023-10-27T07:20:00,pth,1.20
2023-10-27T07:21:00,pth,1.20
2023-10-27T07:22:00,pth,1.20
2023-10-27T07:24:00,pth,2.40
2023-10-27T07:25:00,pth,1.20
2023-10-27T07:27:00,pth,2.40
2023-10-27T07:28:00,pth,1.20
2023-10-27T07:30:00,pth,2.40
2023-10-27T07:31:00,pth,1.20
2023-10-27T07:33:00,pth,2.40
2023-10-27T07:34:00,pth,1.20
2023-10-27T07:36:00,pth,2.40
2023-10-27T07:37:00,pth,1.20
2023-10-27T07:38:00,pth,2.40
2023-10-27T07:40:00,pth,2.40
2023-10-27T07:42:00,pth,2.40
2023-10-27T07:43:00,pth,1.20
2023-10-27T07:45:00,pth,2.40
2023-10-27T07:46:00,pth,1.20
2023-10-27T07:47:00,pth,1.19
2023-10-27T07:49:00,pth,2.40
2023-10-27T07:51:00,pth,2.40
2023-10-27T07:52:00,pth,1.20
2023-10-27T07:54:00,pth,1.19
2023-10-27T07:56:00,pth,2.40
2023-10-27T07:57:00,pth,1.20
2023-10-27T07:58:00,pth,1.20
2023-10-27T08:00:00,pth,3.60
2023-10-27T08:01:00,pth,2.40
2023-10-27T08:02:00,pth,1.20
2023-10-27T08:04:00,pth,4.80
2023-10-27T08:05:00,pth,1.20
2023-10-27T08:07:00,pth,2.40
2023-10-27T08:09:00,pth,2.40
2023-10-27T08:11:00,pth,2.40
2023-10-27T08:12:00,pth,1.20
2023-10-27T08:14:00,pth,2.40
2023-10-27T08:16:00,pth,1.19
2023-10-27T08:17:00,pth,1.20
2023-10-27T08:19:00,pth,2.40
2023-10-27T08:21:00,pth,2.40
2023-10-27T08:22:00,pth,1.19
2023-10-27T08:24:00,pth,4.80
2023-10-27T08:25:00,pth,1.20
2023-10-27T08:26:00,pth,2.40
2023-10-27T08:28:00,pth,2.40
2023-10-27T08:30:00,pth,1.20
2023-10-27T08:32:00,pth,2.40
2023-10-27T08:34:00,pth,1.19
2023-10-27T08:35:00,pth,1.20
2023-10-27T08:37:00,pth,1.20
2023-10-27T08:38:00,pth,1.20
2023-10-27T08:40:00,pth,2.40
2023-10-27T08:42:00,pth,1.19
2023-10-27T08:43:00,pth,1.20
2023-10-27T08:45:00,pth,2.40
2023-10-27T08:46:00,pth,1.20
2023-10-27T08:48:00,pth,2.40
2023-10-27T08:50:00,pth,2.40
2023-10-27T08:52:00,pth,1.20
2023-10-27T08:53:00,pth,1.20
2023-10-27T08:55:00,pth,2.40
2023-10-27T08:56:00,pth,1.19
2023-10-27T08:59:00,pth,2.40
2023-10-27T09:01:00,pth,1.20
2023-10-27T09:03:00,pth,1.20
2023-10-27T09:05:00,pth,1.20
2023-10-27T09:07:00,pth,2.40
2023-10-27T09:08:00,pth,1.20
2023-10-27T09:10:00,pth,1.20
2023-10-27T09:12:00,pth,1.20
2023-10-27T09:13:00,pth,1.20
2023-10-27T09:15:00,pth,1.19
2023-10-27T09:16:00,pth,1.20
2023-10-27T09:18:00,pth,1.20
2023-10-27T09:19:00,pth,1.20
2023-10-27T09:21:00,pth,1.20
2023-10-27T09:22:00,pth,1.20
2023-10-27T09:24:00,pth,2.40
2023-10-27T09:26:00,pth,2.40
2023-10-27T09:27:00,pth,1.20
2023-10-27T09:29:00,pth,2.40
2023-10-27T09:32:00,pth,2.40
2023-10-27T09:34:00,pth,1.20
2023-10-27T09:37:00,pth,2.40
2023-10-27T09:39:00,pth,2.40
2023-10-27T09:40:00,pth,1.20
2023-10-27T09:42:00,pth,1.20
2023-10-27T09:44:00,pth,1.20
2023-10-27T09:45:00,pth,1.20
2023-10-27T09:47:00,pth,2.40
2023-10-27T09:49:00,pth,1.20
2023-10-27T09:50:00,pth,1.20
2023-10-27T09:51:00,pth,1.20
2023-10-27T09:54:00,pth,2.40
2023-10-27T09:56:00,pth,1.19
2023-10-27T09:57:00,pth,1.20
2023-10-27T09:59:00,pth,1.20
2023-10-27T10:01:00,pth,1.20
2023-10-27T10:02:00,pth,1.20
2023-10-27T10:04:00,pth,1.20
2023-10-27T10:07:00,pth,2.40
2023-10-27T10:09:00,pth,1.20
2023-10-27T10:10:00,pth,1.20
2023-10-27T10:12:00,pth,1.20
2023-10-27T10:14:00,pth,2.40
2023-10-27T10:17:00,pth,2.40
2023-10-27T10:20:00,pth,2.40
2023-10-27T10:22:00,pth,1.20
2023-10-27T10:24:00,pth,1.20
2023-10-27T10:25:00,pth,1.19
2023-10-27T10:27:00,pth,2.40
2023-10-27T10:29:00,pth,1.20
2023-10-27T10:31:00,pth,3.60
2023-10-27T10:32:00,pth,1.20
2023-10-27T10:34:00,pth,3.60
2023-10-27T10:36:00,pth,2.40
2023-10-27T10:38:00,pth,1.19
2023-10-27T10:40:00,pth,2.40
2023-10-27T10:41:00,pth,1.20
2023-10-27T10:43:00,pth,1.20
2023-10-27T10:45:00,pth,2.40
2023-10-27T10:46:00,pth,1.20
2023-10-27T10:48:00,pth,2.40
2023-10-27T10:50:00,pth,2.40
2023-10-27T10:51:00,pth,1.19
2023-10-27T10:52:00,pth,1.20
2023-10-27T10:54:00,pth,3.60
2023-10-27T10:55:00,pth,1.20
2023-10-27T10:57:00,pth,2.40
2023-10-27T10:58:00,pth,1.20
2023-10-27T11:00:00,pth,2.40
2023-10-27T11:01:00,pth,1.20
2023-10-27T11:03:00,pth,2.40
2023-10-27T11:05:00,pth,1.20
2023-10-27T11:07:00,pth,2.40
2023-10-27T11:09:00,pth,2.40
2023-10-27T11:11:00,pth,2.40
2023-10-27T11:12:00,pth,1.20
2023-10-27T11:13:00,pth,1.20
2023-10-27T11:15:00,pth,2.40
2023-10-27T11:16:00,pth,1.19
2023-10-27T11:18:00,pth,2.40
2023-10-27T11:20:00,pth,2.40
2023-10-27T11:21:00,pth,1.20
2023-10-27T11:23:00,pth,1.19
2023-10-27T11:25:00,pth,2.40
2023-10-27T11:26:00,pth,1.20
2023-10-27T11:28:00,pth,2.40
2023-10-27T11:29:00,pth,1.20
2023-10-27T11:31:00,pth,3.60
2023-10-27T11:33:00,pth,2.40
2023-10-27T11:35:00,pth,2.40
2023-10-27T11:37:00,pth,2.40
2023-10-27T11:39:00,pth,2.40
2023-10-27T11:41:00,pth,2.40
2023-10-27T11:43:00,pth,3.60
2023-10-27T11:45:00,pth,2.40
2023-10-27T11:47:00,pth,1.19
2023-10-27T11:49:00,pth,4.80
2023-10-27T11:51:00,pth,3.60
2023-10-27T11:53:00,pth,3.60
2023-10-27T11:55:00,pth,3.60
2023-10-27T11:57:00,pth,3.60
2023-10-27T11:58:00,pth,6.00
2023-10-27T12:00:00,pth,13.20
2023-10-27T12:02:00,pth,13.21
2023-10-27T12:03:00,pth,8.39
2023-10-27T12:05:00,pth,14.41
2023-10-27T12:06:00,pth,7.20
2023-10-27T12:08:00,pth,13.20
2023-10-27T12:09:00,pth,7.20
2023-10-27T12:11:00,pth,14.40
2023-10-27T12:12:00,pth,7.20
2023-10-27T12:14:00,pth,14.40
2023-10-27T12:16:00,pth,14.40
2023-10-27T12:17:00,pth,6.00
2023-10-27T12:19:00,pth,13.21
2023-10-27T12:21:00,pth,13.20
2023-10-27T12:22:00,pth,6.00
2023-10-27T12:24:00,pth,14.40
2023-10-27T12:26:00,pth,14.40
2023-10-27T12:28:00,pth,12.00
2023-10-27T12:29:00,pth,6.00
2023-10-27T12:31:00,pth,13.20
2023-10-27T12:32:00,pth,7.20
2023-10-27T12:34:00,pth,13.20
2023-10-27T12:35:00,pth,7.20
2023-10-27T12:37:00,pth,14.40
2023-10-27T12:39:00,pth,14.41
2023-10-27T12:40:00,pth,7.20
2023-10-27T12:41:00,pth,7.20
2023-10-27T12:43:00,pth,14.40
2023-10-27T12:44:00,pth,7.20
2023-10-27T12:46:00,pth,15.60
2023-10-27T12:48:00,pth,13.20
2023-10-27T12:50:00,pth,13.20
2023-10-27T12:51:00,pth,7.20
2023-10-27T12:53:00,pth,13.20
2023-10-27T12:54:00,pth,7.20
2023-10-27T12:55:00,pth,7.20
2023-10-27T12:57:00,pth,14.41
2023-10-27T12:59:00,pth,13.20
2023-10-27T13:00:00,pth,7.20
2023-10-27T13:01:00,pth,6.00
2023-10-27T13:03:00,pth,14.40
2023-10-27T13:05:00,pth,8.40
2023-10-27T13:06:00,pth,2.40
2023-10-27T13:08:00,pth,13.20
2023-10-27T13:09:00,pth,6.00
2023-10-27T13:10:00,pth,7.20
2023-10-27T13:12:00,pth,13.20
2023-10-27T13:14:00,pth,9.60
2023-10-27T13:15:00,pth,1.20
2023-10-27T13:17:00,pth,10.80
2023-10-27T13:18:00,pth,7.20
2023-10-27T13:20:00,pth,10.80
2023-10-27T13:21:00,pth,1.20
2023-10-27T13:22:00,pth,2.40
2023-10-27T13:24:00,pth,13.20
2023-10-27T13:26:00,pth,13.20
2023-10-27T13:27:00,pth,1.20
2023-10-27T13:29:00,pth,8.40
2023-10-27T13:31:00,pth,13.20
2023-10-27T13:32:00,pth,2.40
2023-10-27T13:33:00,pth,1.20
2023-10-27T13:34:00,pth,4.80
2023-10-27T13:36:00,pth,8.40
2023-10-27T13:37:00,pth,4.80
2023-10-27T13:39:00,pth,13.20
2023-10-27T13:40:00,pth,7.20
2023-10-27T13:41:00,pth,8.40
2023-10-27T13:43:00,pth,7.20
2023-10-27T13:45:00,pth,13.21
2023-10-27T13:47:00,pth,13.20
2023-10-27T13:49:00,pth,8.40
2023-10-27T13:51:00,pth,13.20
2023-10-27T13:52:00,pth,4.80
2023-10-27T13:54:00,pth,9.60
2023-10-27T13:56:00,pth,7.20
2023-10-27T13:58:00,pth,12.00
2023-10-27T14:00:00,pth,8.39
2023-10-27T14:02:00,pth,7.20
2023-10-27T14:04:00,pth,10.80
2023-10-27T14:05:00,pth,3.60
2023-10-27T14:06:00,pth,7.20
2023-10-27T14:07:00,pth,6.00
2023-10-27T14:09:00,pth,7.20
2023-10-27T14:10:00,pth,6.00
2023-10-27T14:12:00,pth,7.20
2023-10-27T14:14:00,pth,13.20
2023-10-27T14:15:00,pth,2.40
2023-10-27T14:17:00,pth,13.20
2023-10-27T14:18:00,pth,2.40
2023-10-27T14:20:00,pth,13.20
2023-10-27T14:22:00,pth,7.20
2023-10-27T14:23:00,pth,6.00
2023-10-27T14:25:00,pth,7.20
2023-10-27T14:26:00,pth,6.01
2023-10-27T14:28:00,pth,6.00
2023-10-27T14:30:00,pth,12.00
2023-10-27T14:31:00,pth,1.20
2023-10-27T14:33:00,pth,12.00
2023-10-27T14:34:00,pth,1.20
2023-10-27T14:36:00,pth,7.20
2023-10-27T14:37:00,pth,1.20
2023-10-27T14:39:00,pth,2.40
2023-10-27T14:41:00,pth,2.40
2023-10-27T14:43:00,pth,2.40
2023-10-27T14:45:00,pth,1.20
2023-10-27T14:47:00,pth,2.40
2023-10-27T14:48:00,pth,1.20
2023-10-27T14:49:00,pth,1.19
2023-10-27T14:51:00,pth,2.40
2023-10-27T14:53:00,pth,2.40
2023-10-27T14:55:00,pth,2.40
2023-10-27T14:57:00,pth,3.60
2023-10-27T14:58:00,pth,1.20
2023-10-27T14:59:00,pth,2.40
2023-10-27T15:01:00,pth,2.40
2023-10-27T15:03:00,pth,2.40
2023-10-27T15:05:00,pth,3.60
2023-10-27T15:07:00,pth,2.40
2023-10-27T15:08:00,pth,1.20
2023-10-27T15:10:00,pth,2.40
2023-10-27T15:12:00,pth,2.40
2023-10-27T15:14:00,pth,1.20
2023-10-27T15:16:00,pth,2.40
2023-10-27T15:18:00,pth,2.40
2023-10-27T15:19:00,pth,1.20
2023-10-27T15:20:00,pth,1.20
2023-10-27T15:22:00,pth,2.40
2023-10-27T15:23:00,pth,1.20
2023-10-27T15:25:00,pth,1.19
2023-10-27T15:27:00,pth,2.40
2023-10-27T15:28:00,pth,1.20
2023-10-27T15:30:00,pth,1.20
2023-10-27T15:31:00,pth,1.20
2023-10-27T15:33:00,pth,2.40
2023-10-27T15:34:00,pth,1.20
2023-10-27T15:36:00,pth,2.40
2023-10-27T15:37:00,pth,7.20
2023-10-27T15:39:00,pth,13.20
2023-10-27T15:41:00,pth,13.20
2023-10-27T15:42:00,pth,6.01
2023-10-27T15:44:00,pth,13.20
2023-10-27T15:46:00,pth,12.00
2023-10-27T15:47:00,pth,7.20
2023-10-27T15:49:00,pth,12.00
2023-10-27T15:51:00,pth,13.20
2023-10-27T15:52:00,pth,6.00
2023-10-27T15:54:00,pth,13.20
2023-10-27T15:55:00,pth,6.01
2023-10-27T15:57:00,pth,12.00
2023-10-27T15:59:00,pth,13.20
2023-10-27T16:00:00,pth,7.20
2023-10-27T16:01:00,pth,6.00
2023-10-27T16:03:00,pth,14.41
2023-10-27T16:04:00,pth,6.00
2023-10-27T16:06:00,pth,14.40
2023-10-27T16:08:00,pth,6.00
2023-10-27T16:10:00,pth,13.20
2023-10-27T16:12:00,pth,8.40
2023-10-27T16:14:00,pth,10.80
2023-10-27T16:15:00,pth,7.20
2023-10-27T16:16:00,pth,2.40
2023-10-27T16:18:00,pth,8.40
2023-10-27T16:20:00,pth,12.00
2023-10-27T16:22:00,pth,4.80
2023-10-27T16:23:00,pth,7.20
2023-10-27T16:25:00,pth,8.40
2023-10-27T16:27:00,pth,8.40
2023-10-27T16:28:00,pth,7.20
2023-10-27T16:30:00,pth,3.60
2023-10-27T16:32:00,pth,12.00
2023-10-27T16:34:00,pth,7.20
2023-10-27T16:36:00,pth,3.60
2023-10-27T16:38:00,pth,2.40
2023-10-27T16:40:00,pth,2.40
2023-10-27T16:42:00,pth,2.40
2023-10-27T16:44:00,pth,2.40
2023-10-27T16:45:00,pth,1.20
2023-10-27T16:46:00,pth,1.20
2023-10-27T16:48:00,pth,8.40
2023-10-27T16:49:00,pth,7.20
2023-10-27T16:51:00,pth,7.20
2023-10-27T16:52:00,pth,2.40
2023-10-27T16:54:00,pth,9.60
2023-10-27T16:55:00,pth,1.20
2023-10-27T16:57:00,pth,10.80
2023-10-27T16:58:00,pth,2.40
2023-10-27T17:00:00,pth,8.40
2023-10-27T17:02:00,pth,4.80
2023-10-27T17:03:00,pth,3.60
2023-10-27T17:05:00,pth,8.40
2023-10-27T17:07:00,pth,8.40
2023-10-27T17:08:00,pth,3.60
2023-10-27T17:09:00,pth,1.20
2023-10-27T17:11:00,pth,10.80
2023-10-27T17:13:00,pth,3.60
2023-10-27T17:14:00,pth,7.20
2023-10-27T17:16:00,pth,3.60
2023-10-27T17:17:00,pth,4.80
2023-10-27T17:19:00,pth,7.20
2023-10-27T17:21:00,pth,9.60
2023-10-27T17:23:00,pth,3.60
2023-10-27T17:25:00,pth,10.80
2023-10-27T17:27:00,pth,3.60
2023-10-27T17:29:00,pth,9.60
2023-10-27T17:31:00,pth,7.20
2023-10-27T17:32:00,pth,8.40
2023-10-27T17:34:00,pth,3.60
2023-10-27T17:36:00,pth,10.80
2023-10-27T17:38:00,pth,6.00
2023-10-27T17:40:00,pth,8.40
2023-10-27T17:41:00,pth,1.20
2023-10-27T17:42:00,pth,4.80
2023-10-27T17:44:00,pth,7.20
2023-10-27T17:47:00,pth,3.60
2023-10-27T17:48:00,pth,6.00
2023-10-27T17:50:00,pth,13.20
2023-10-27T17:52:00,pth,14.41
2023-10-27T17:53:00,pth,7.20
2023-10-27T17:54:00,pth,7.20
2023-10-27T17:56:00,pth,14.40
2023-10-27T17:58:00,pth,13.20
2023-10-27T17:59:00,pth,8.40
2023-10-27T18:01:00,pth,14.40
2023-10-27T18:03:00,pth,14.40
2023-10-27T18:05:00,pth,14.40
2023-10-27T18:07:00,pth,14.40
2023-10-27T18:09:00,pth,14.40
2023-10-27T18:11:00,pth,15.60
2023-10-27T18:12:00,pth,7.20
2023-10-27T18:13:00,pth,7.20
2023-10-27T18:15:00,pth,14.40
2023-10-27T18:16:00,pth,6.00
2023-10-27T18:18:00,pth,14.41
2023-10-27T18:20:00,pth,8.39
2023-10-27T18:22:00,pth,12.00
2023-10-27T18:24:00,pth,14.40
2023-10-27T18:25:00,pth,6.00
2023-10-27T18:27:00,pth,14.40
2023-10-27T18:29:00,pth,13.20
2023-10-27T18:30:00,pth,7.20
2023-10-27T18:32:00,pth,13.21
2023-10-27T18:33:00,pth,7.20
2023-10-27T18:35:00,pth,14.40
2023-10-27T18:36:00,pth,6.00
2023-10-27T18:38:00,pth,14.40
2023-10-27T18:39:00,pth,7.20
2023-10-27T18:41:00,pth,13.20
2023-10-27T18:42:00,pth,7.20
2023-10-27T18:43:00,pth,7.20
2023-10-27T18:45:00,pth,13.21
2023-10-27T18:47:00,pth,13.20
2023-10-27T18:49:00,pth,13.20
2023-10-27T18:51:00,pth,14.40
2023-10-27T18:53:00,pth,13.21
2023-10-27T18:55:00,pth,14.40
2023-10-27T18:56:00,pth,6.00
2023-10-27T18:58:00,pth,13.20
2023-10-27T19:00:00,pth,12.00
2023-10-27T19:01:00,pth,1.20
2023-10-27T19:03:00,pth,3.60
2023-10-27T19:05:00,pth,13.20
2023-10-27T19:07:00,pth,13.20
2023-10-27T19:08:00,pth,6.00
2023-10-27T19:10:00,pth,8.40
2023-10-27T19:11:00,pth,1.20
2023-10-27T19:12:00,pth,1.20
2023-10-27T19:13:00,pth,2.40
2023-10-27T19:15:00,pth,14.40
2023-10-27T19:17:00,pth,13.20
2023-10-27T19:19:00,pth,4.80
2023-10-27T19:20:00,pth,2.40
2023-10-27T19:22:00,pth,3.60
2023-10-27T19:23:00,pth,1.19
2023-10-27T19:25:00,pth,3.60
2023-10-27T19:27:00,pth,2.40
2023-10-27T19:29:00,pth,3.60
2023-10-27T19:31:00,pth,2.40
2023-10-27T19:33:00,pth,2.40
2023-10-27T19:34:00,pth,1.19
2023-10-27T19:35:00,pth,1.20
2023-10-27T19:36:00,pth,1.20
2023-10-27T19:38:00,pth,2.40
2023-10-27T19:39:00,pth,1.20
2023-10-27T19:41:00,pth,2.40
2023-10-27T19:43:00,pth,2.40
2023-10-27T19:45:00,pth,3.60
2023-10-27T19:47:00,pth,2.40
2023-10-27T19:49:00,pth,3.60
2023-10-27T19:51:00,pth,2.40
2023-10-27T19:53:00,pth,3.60
2023-10-27T19:55:00,pth,2.40
2023-10-27T19:57:00,pth,3.60
2023-10-27T19:58:00,pth,1.20
2023-10-27T19:59:00,pth,1.20
2023-10-27T20:00:00,pth,1.20
2023-10-27T20:02:00,pth,2.40
2023-10-27T20:04:00,pth,2.40
2023-10-27T20:06:00,pth,2.40
2023-10-27T20:07:00,pth,2.40
2023-10-27T20:09:00,pth,2.40
2023-10-27T20:10:00,pth,1.20
2023-10-27T20:12:00,pth,2.40
2023-10-27T20:13:00,pth,1.20
2023-10-27T20:15:00,pth,2.40
2023-10-27T20:17:00,pth,3.60
2023-10-27T20:19:00,pth,2.40
2023-10-27T20:21:00,pth,3.60
2023-10-27T20:23:00,pth,2.40
2023-10-27T20:25:00,pth,2.40
2023-10-27T20:27:00,pth,3.60
2023-10-27T20:28:00,pth,1.19
2023-10-27T20:29:00,pth,1.20
2023-10-27T20:31:00,pth,2.40
2023-10-27T20:32:00,pth,1.20
2023-10-27T20:34:00,pth,2.40
2023-10-27T20:35:00,pth,1.20
2023-10-27T20:37:00,pth,2.40
2023-10-27T20:39:00,pth,2.40
2023-10-27T20:41:00,pth,2.40
2023-10-27T20:43:00,pth,7.20
2023-10-27T20:45:00,pth,14.40
2023-10-27T20:47:00,pth,13.21
2023-10-27T20:49:00,pth,14.40
2023-10-27T20:51:00,pth,13.20
2023-10-27T20:53:00,pth,14.40
2023-10-27T20:54:00,pth,7.20
2023-10-27T20:55:00,pth,6.00
2023-10-27T20:57:00,pth,14.40
2023-10-27T20:59:00,pth,13.21
2023-10-27T21:01:00,pth,14.40
2023-10-27T21:02:00,pth,7.20
2023-10-27T21:04:00,pth,14.40
2023-10-27T21:06:00,pth,6.00
2023-10-27T21:08:00,pth,12.00
2023-10-27T21:10:00,pth,9.60
2023-10-27T21:11:00,pth,2.40
2023-10-27T21:12:00,pth,1.20
2023-10-27T21:13:00,pth,3.60
2023-10-27T21:15:00,pth,14.40
2023-10-27T21:17:00,pth,12.00
2023-10-27T21:18:00,pth,1.20
2023-10-27T21:20:00,pth,3.60
2023-10-27T21:22:00,pth,9.60
2023-10-27T21:23:00,pth,7.20
2023-10-27T21:25:00,pth,13.20
2023-10-27T21:26:00,pth,2.40
2023-10-27T21:28:00,pth,4.80
2023-10-27T21:30:00,pth,8.40
2023-10-27T21:32:00,pth,16.80
2023-10-27T21:34:00,pth,13.20
2023-10-27T21:36:00,pth,3.60
2023-10-27T21:38:00,pth,3.60
2023-10-27T21:39:00,pth,6.00
2023-10-27T21:41:00,pth,14.40
2023-10-27T21:42:00,pth,1.20
2023-10-27T21:43:00,pth,2.40
2023-10-27T21:45:00,pth,3.60
2023-10-27T21:47:00,pth,4.80
2023-10-27T21:48:00,pth,1.20
2023-10-27T21:50:00,pth,4.80
2023-10-27T21:52:00,pth,3.60
2023-10-27T21:53:00,pth,2.40
2023-10-27T21:55:00,pth,3.60
2023-10-27T21:57:00,pth,3.60
2023-10-27T21:58:00,pth,1.20
2023-10-27T22:00:00,pth,3.60
2023-10-27T22:02:00,pth,2.40
2023-10-27T22:04:00,pth,4.80
2023-10-27T22:06:00,pth,3.60
2023-10-27T22:08:00,pth,3.60
2023-10-27T22:09:00,pth,1.19
2023-10-27T22:10:00,pth,1.20
2023-10-27T22:12:00,pth,3.60
2023-10-27T22:14:00,pth,3.60
2023-10-27T22:15:00,pth,2.40
2023-10-27T22:17:00,pth,2.40
2023-10-27T22:19:00,pth,3.60
2023-10-27T22:21:00,pth,4.80
2023-10-27T22:22:00,pth,2.40
2023-10-27T22:23:00,pth,3.60
2023-10-27T22:25:00,pth,4.80
2023-10-27T22:27:00,pth,3.60
2023-10-27T22:28:00,pth,2.40